When you browse on this site, cookies collect data to enhance your experience and personalize the content and advertising you see.
Visit our Privacy Policy to learn more. By continuing to use the site, you agree to this use of cookies and data.
  • In Denmark
  • List of Countries
  • For 7 days
  • Water Temperature
  • Satellite Maps
  • Weather Map
  • Weather Widgets
  • user-avatar
    Login

    Hourly Weather Szklarnia

    Today, 23 July, Tuesday

    Time Temperature Precipitation Wind Pressure Humidity
    00:00 +17°C° 0.1 mm 0 mps 725 mmHg 85%
    01:00 +17°C° 0.1 mm 0 mps 725 mmHg 88%
    02:00 +18°C° 0 mm 1 mps 725 mmHg 88%
    03:00 +18°C° 0 mm 1 mps 724 mmHg 88%
    04:00 +18°C° 0 mm 1 mps 724 mmHg 88%
    05:00 +19°C° 0 mm 1 mps 724 mmHg 86%
    06:00 +19°C° 0 mm 1 mps 725 mmHg 85%
    07:00 +20°C° 0 mm 1 mps 725 mmHg 84%
    08:00 +20°C° 0 mm 2 mps 725 mmHg 80%
    09:00 +21°C° 0 mm 2 mps 725 mmHg 75%
    10:00 +22°C° 0 mm 3 mps 725 mmHg 71%
    11:00 +24°C° 0 mm 3 mps 725 mmHg 68%
    12:00 +25°C° 0 mm 3 mps 725 mmHg 65%
    13:00 +26°C° 0 mm 3 mps 724 mmHg 62%
    14:00 +26°C° 0.1 mm 3 mps 724 mmHg 64%
    15:00 +26°C° 0.1 mm 4 mps 724 mmHg 66%
    16:00 +26°C° 0.1 mm 4 mps 724 mmHg 67%
    17:00 +25°C° 0 mm 3 mps 724 mmHg 73%
    18:00 +24°C° 0 mm 2 mps 724 mmHg 78%
    19:00 +23°C° 0 mm 2 mps 723 mmHg 83%
    20:00 +22°C° 0 mm 1 mps 723 mmHg 86%
    21:00 +20°C° 0 mm 1 mps 723 mmHg 88%
    22:00 +17°C° 0 mm 0 mps 724 mmHg 91%
    23:00 +17°C° 0 mm 0 mps 723 mmHg 92%

    Tomorrow, 24 July, Wednesday

    Time Temperature Precipitation Wind Pressure Humidity
    00:00 +17°C° 0 mm 0 mps 723 mmHg 92%
    01:00 +16°C° 0 mm 0 mps 723 mmHg 92%
    02:00 +16°C° 0 mm 0 mps 723 mmHg 93%
    03:00 +16°C° 0 mm 0 mps 723 mmHg 93%
    04:00 +16°C° 0 mm 0 mps 722 mmHg 93%
    05:00 +17°C° 0 mm 0 mps 723 mmHg 89%
    06:00 +21°C° 0 mm 1 mps 723 mmHg 86%
    07:00 +22°C° 0 mm 1 mps 723 mmHg 82%
    08:00 +23°C° 0 mm 1 mps 723 mmHg 75%
    09:00 +25°C° 0 mm 1 mps 723 mmHg 68%
    10:00 +26°C° 0 mm 2 mps 724 mmHg 61%
    11:00 +27°C° 0 mm 2 mps 723 mmHg 59%
    12:00 +27°C° 0 mm 2 mps 723 mmHg 57%
    13:00 +28°C° 0 mm 3 mps 723 mmHg 55%
    14:00 +28°C° 0 mm 3 mps 723 mmHg 57%
    15:00 +27°C° 0 mm 3 mps 723 mmHg 58%
    16:00 +27°C° 0 mm 3 mps 723 mmHg 60%
    17:00 +26°C° 0 mm 2 mps 722 mmHg 66%
    18:00 +24°C° 0 mm 2 mps 722 mmHg 72%
    19:00 +23°C° 0 mm 1 mps 722 mmHg 78%
    20:00 +22°C° 0 mm 1 mps 722 mmHg 81%
    21:00 +20°C° 0 mm 1 mps 723 mmHg 84%
    22:00 +19°C° 0 mm 1 mps 723 mmHg 87%
    23:00 +19°C° 0 mm 1 mps 723 mmHg 88%

    Day after tomorrow, 25 July, Thursday

    Time Temperature Precipitation Wind Pressure Humidity
    00:00 +17°C° 0 mm 0 mps 723 mmHg 88%
    01:00 +16°C° 0 mm 0 mps 723 mmHg 89%
    02:00 +16°C° 0 mm 0 mps 723 mmHg 89%
    03:00 +16°C° 0 mm 0 mps 723 mmHg 89%
    04:00 +16°C° 0 mm 0 mps 723 mmHg 90%
    05:00 +18°C° 0 mm 0 mps 723 mmHg 85%
    06:00 +19°C° 0 mm 0 mps 723 mmHg 80%
    07:00 +21°C° 0 mm 0 mps 723 mmHg 76%
    08:00 +22°C° 0 mm 0 mps 723 mmHg 70%
    09:00 +26°C° 0 mm 1 mps 724 mmHg 65%
    10:00 +27°C° 0 mm 1 mps 724 mmHg 59%
    11:00 +28°C° 0 mm 1 mps 723 mmHg 57%
    12:00 +28°C° 0 mm 2 mps 723 mmHg 55%
    13:00 +29°C° 0 mm 2 mps 723 mmHg 53%
    14:00 +28°C° 0 mm 2 mps 723 mmHg 54%
    15:00 +28°C° 0 mm 2 mps 722 mmHg 54%
    16:00 +28°C° 0 mm 2 mps 722 mmHg 55%
    17:00 +27°C° 0 mm 2 mps 722 mmHg 62%
    18:00 +25°C° 0 mm 1 mps 722 mmHg 68%
    19:00 +24°C° 0 mm 1 mps 721 mmHg 75%
    20:00 +23°C° 0 mm 1 mps 721 mmHg 78%
    21:00 +21°C° 0 mm 1 mps 721 mmHg 81%
    22:00 +20°C° 0 mm 1 mps 721 mmHg 84%
    23:00 +20°C° 0 mm 1 mps 721 mmHg 85%

    26 July, Friday

    Time Temperature Precipitation Wind Pressure Humidity
    00:00 +19°C° 0 mm 1 mps 721 mmHg 86%
    01:00 +19°C° 0 mm 1 mps 721 mmHg 87%
    02:00 +19°C° 0 mm 1 mps 721 mmHg 88%
    03:00 +18°C° 0 mm 1 mps 720 mmHg 89%
    04:00 +18°C° 0 mm 1 mps 720 mmHg 89%
    05:00 +19°C° 0 mm 1 mps 720 mmHg 86%
    06:00 +21°C° 0 mm 1 mps 720 mmHg 82%
    07:00 +22°C° 0 mm 1 mps 721 mmHg 79%
    08:00 +23°C° 0 mm 2 mps 721 mmHg 73%
    09:00 +24°C° 0 mm 2 mps 721 mmHg 68%
    10:00 +25°C° 0 mm 3 mps 721 mmHg 63%
    11:00 +25°C° 0 mm 3 mps 720 mmHg 60%
    12:00 +25°C° 0 mm 3 mps 720 mmHg 57%
    13:00 +26°C° 0 mm 4 mps 720 mmHg 54%
    14:00 +25°C° 0 mm 4 mps 719 mmHg 55%
    15:00 +25°C° 0 mm 4 mps 719 mmHg 56%
    16:00 +25°C° 0 mm 4 mps 719 mmHg 57%
    17:00 +22°C° 0 mm 4 mps 719 mmHg 63%
    18:00 +21°C° 0 mm 3 mps 719 mmHg 69%
    19:00 +20°C° 0 mm 2 mps 718 mmHg 76%
    20:00 +19°C° 0 mm 2 mps 718 mmHg 79%
    21:00 +18°C° 0 mm 2 mps 719 mmHg 83%
    22:00 +16°C° 0 mm 2 mps 719 mmHg 87%
    23:00 +16°C° 0 mm 2 mps 718 mmHg 88%

    27 July, Saturday

    Time Temperature Precipitation Wind Pressure Humidity
    00:00 +16°C° 0 mm 1 mps 718 mmHg 89%
    01:00 +15°C° 0 mm 1 mps 718 mmHg 91%
    02:00 +15°C° 0 mm 1 mps 718 mmHg 91%
    03:00 +15°C° 0 mm 1 mps 718 mmHg 92%
    04:00 +14°C° 0 mm 1 mps 717 mmHg 93%
    05:00 +16°C° 0 mm 2 mps 718 mmHg 89%
    06:00 +17°C° 0 mm 2 mps 718 mmHg 85%
    07:00 +19°C° 0 mm 2 mps 718 mmHg 81%
    08:00 +20°C° 0 mm 2 mps 718 mmHg 77%
    09:00 +21°C° 0 mm 2 mps 718 mmHg 73%
    10:00 +22°C° 0 mm 3 mps 718 mmHg 70%
    11:00 +22°C° 0.1 mm 3 mps 718 mmHg 67%
    12:00 +24°C° 0.1 mm 3 mps 717 mmHg 64%
    13:00 +25°C° 0.1 mm 2 mps 717 mmHg 61%
    14:00 +25°C° 0.2 mm 3 mps 717 mmHg 63%
    15:00 +24°C° 0.2 mm 3 mps 717 mmHg 65%
    16:00 +23°C° 0.2 mm 4 mps 717 mmHg 66%
    17:00 +22°C° 0 mm 3 mps 716 mmHg 70%
    18:00 +21°C° 0 mm 3 mps 716 mmHg 74%
    19:00 +20°C° 0 mm 3 mps 716 mmHg 78%
    20:00 +19°C° 0 mm 2 mps 716 mmHg 82%
    21:00 +17°C° 0 mm 2 mps 716 mmHg 86%
    22:00 +16°C° 0 mm 2 mps 716 mmHg 90%
    23:00 +16°C° 0 mm 2 mps 716 mmHg 91%

    28 July, Sunday

    Time Temperature Precipitation Wind Pressure Humidity
    00:00 +15°C° 0 mm 2 mps 716 mmHg 93%
    01:00 +15°C° 0 mm 1 mps 716 mmHg 94%
    02:00 +15°C° 0 mm 2 mps 716 mmHg 95%
    03:00 +15°C° 0 mm 2 mps 716 mmHg 96%
    04:00 +15°C° 0 mm 2 mps 716 mmHg 97%
    05:00 +16°C° 0 mm 2 mps 716 mmHg 93%
    06:00 +17°C° 0 mm 2 mps 716 mmHg 89%
    07:00 +18°C° 0 mm 3 mps 716 mmHg 86%
    08:00 +19°C° 0 mm 3 mps 716 mmHg 81%
    09:00 +20°C° 0 mm 3 mps 716 mmHg 76%
    10:00 +21°C° 0 mm 3 mps 716 mmHg 71%
    11:00 +22°C° 0.1 mm 3 mps 716 mmHg 69%
    12:00 +24°C° 0.1 mm 3 mps 716 mmHg 66%
    13:00 +25°C° 0.1 mm 3 mps 716 mmHg 64%
    14:00 +25°C° 1.1 mm 3 mps 716 mmHg 66%
    15:00 +24°C° 1.1 mm 3 mps 715 mmHg 69%
    16:00 +24°C° 1.1 mm 3 mps 715 mmHg 71%
    17:00 +22°C° 0.4 mm 3 mps 715 mmHg 75%
    18:00 +21°C° 0.4 mm 2 mps 715 mmHg 78%
    19:00 +20°C° 0.4 mm 2 mps 715 mmHg 82%
    20:00 +20°C° 0.1 mm 1 mps 715 mmHg 84%
    21:00 +19°C° 0.1 mm 1 mps 715 mmHg 85%
    22:00 +18°C° 0.1 mm 1 mps 715 mmHg 87%
    23:00 +18°C° 0.1 mm 1 mps 715 mmHg 88%
    Show more